Regional Weather Roundup
Issued by NWS

Home | Current Version | Previous Version | Graphics & Text | Print | Product List | Glossary On
Versions: 1 2 3 4 5 6 7 8 9 10 11 12 13 14 15 16 17 18 19 20 21 22 23 24 25 26 27 28 29 30 31 32 33 34 35 36 37 38 39 40 41 42 43 44 45 46 47 48 49 50
000
ASUS43 KOAX 010110
RWRNE

WEATHER ROUNDUP FOR NEBRASKA
NATIONAL WEATHER SERVICE OMAHA NE
800 PM CDT FRI JUL 31 2015

NOTES: SATELLITE DATA IS BEING USED TO AUGMENT CLOUD COVER ABOVE
       12000 FEET.
       "FAIR" INDICATES FEW OR NO CLOUDS BELOW 12,000 FEET WITH NO
       SIGNIFICANT WEATHER AND/OR OBSTRUCTIONS TO VISIBILITY.

  * THESE STATIONS DO NOT REPORT WEATHER SUCH AS RAIN...SNOW OR FOG.

NEZ001>004-019>022-054>056-010200-
NEBRASKA PANHANDLE

CITY           SKY/WX    TMP DP  RH WIND       PRES   REMARKS
SCOTTSBLUFF    SUNNY     84  58  40 NE7       30.13F
ALLIANCE       SUNNY     84  55  36 SE8       30.13F
CHADRON        MOSUNNY   85  54  34 SW13      30.09S
KIMBALL        SUNNY     82  49  31 E5        30.19S
SIDNEY         MOSUNNY   88  47  24 SE6       30.16F
$$

NEZ057>060-069>072-079>082-010200-
SOUTHWEST NEBRASKA

CITY           SKY/WX    TMP DP  RH WIND       PRES   REMARKS
NORTH PLATTE   CLEAR     84  67  56 E6        30.08S
IMPERIAL       SUNNY     91  46  21 E5        30.10S
LEXINGTON      CLEAR     90  63  40 SE6       30.07R HX  90
MCCOOK         PTCLDY    91  58  32 SE3       30.06S HX  90
OGALLALA       MOSUNNY   87  56  35 E3        30.11S
$$

NEZ005>010-023>029-035>040-094-010200-
NORTH CENTRAL NEBRASKA

CITY           SKY/WX    TMP DP  RH WIND       PRES   REMARKS
VALENTINE      SUNNY     89  55  31 E13       30.08R
AINSWORTH      CLEAR     84  67  56 E3        30.09R
BROKEN BOW     PTCLDY    79  63  57 SE13      30.10R
O`NEILL        CLEAR     83  67  58 S9        30.08R
ORD            MOCLDY    72  64  76 S5        30.08F
THEDFORD       CLEAR     89  58  34 CALM      30.09S
$$

NEZ041-046>049-061>064-073>077-083>087-010200-
SOUTH CENTRAL NEBRASKA

CITY           SKY/WX    TMP DP  RH WIND       PRES   REMARKS
GRAND ISLAND   TSTM      67  63  87 W18       30.15R FOG
AURORA         RAIN      70  61  73 W3G24     30.11R
HASTINGS       PTCLDY    73  59  61 E15G22    30.11F
HEBRON         PTCLDY    80  63  54 NE5       30.08R
HOLDREGE       CLEAR     83  66  55 E21       30.09R
KEARNEY *      PTCLDY    75  59  57 E16       30.10S
YORK           MOCLDY    72  63  73 SW10      30.06F
$$

NEZ011>018-030>034-042>045-010200-
NORTHEAST NEBRASKA

CITY           SKY/WX    TMP DP  RH WIND       PRES   REMARKS
NORFOLK        CLEAR     77  63  61 SW6       30.06F
ALBION         PTCLDY    73  63  69 CALM      30.08S
BLAIR          MOCLDY    82  73  74 NE3       30.03S
COLUMBUS *     MOCLDY    77  63  61 CALM      30.06S
FREMONT        PTCLDY    82  69  65 W6        30.03F
TEKAMAH        PTCLDY    79  67  66 N6        30.02R
WAYNE          CLEAR     79  67  65 S5        30.05F
$$

NEZ050>053-065>068-078-088>093-010200-
SOUTHEAST NEBRASKA

CITY           SKY/WX    TMP DP  RH WIND       PRES   REMARKS
LINCOLN        CLOUDY    82  57  42 N9        30.04R
OMAHA EPPLEY   MOCLDY    86  75  69 E5        30.01F HX  95
BEATRICE       MOCLDY    81  67  61 W3        30.06F
FALLS CITY     MOCLDY    84  74  71 S5        30.02F HX  91
NEBRASKA CITY  CLOUDY    81  71  71 SE3       30.03S
PLATTSMOUTH    CLOUDY    76  62  62 W3        30.03S
$$

NEZ044-045-051>053-067-010200-
OMAHA AREA

CITY           SKY/WX    TMP DP  RH WIND       PRES   REMARKS
OMAHA EPPLEY   MOCLDY    86  75  69 E5        30.01F HX  95
BLAIR          MOCLDY    82  73  74 NE3       30.03S
FREMONT        PTCLDY    82  69  65 W6        30.03F
MILLARD        MOCLDY    86  76  71 CALM      30.01S HX  96
OFFUTT AFB     MOCLDY    80  71  74 SE5       30.02S
PLATTSMOUTH    CLOUDY    76  62  62 W3        30.03S
WAHOO          FAIR      81  71  70 N9        30.04S
$$


USA.gov is the U.S. government's official web portal to all federal, state and local government web resources and services.